Regional Weather Roundup
Issued by NWS Upton, NY

Current Version | Previous Version | Text Only | Print | Product List | Glossary On
Versions: 1 2 3 4 5 6 7 8 9 10 11 12 13 14 15 16 17 18 19 20 21 22 23 24 25 26 27 28 29 30 31 32 33 34 35 36 37 38 39 40 41 42 43 44 45 46 47 48 49 50
000 ASUS41 KOKX 041304 RWROKX REGIONAL WEATHER ROUNDUP NATIONAL WEATHER SERVICE NEW YORK NY 900 AM EDT FRI SEP 04 2015 NOTE: "FAIR" INDICATES FEW OR NO CLOUDS BELOW 12,000 FEET WITH NO SIGNIFICANT WEATHER AND/OR OBSTRUCTIONS TO VISIBILITY. NYZ071-072-176-178-NJZ106-104-041400- NEW YORK CITY METRO AREA CITY SKY/WX TMP DP RH WIND PRES REMARKS CENTRAL PARK SUNNY 79 67 66 NE8 30.06R LAGUARDIA APRT MOSUNNY 78 67 68 NE15G21 30.03R KENNEDY INTL MOSUNNY 80 69 69 NE14 30.03R NEWARK/LIBERTY MOSUNNY 80 68 66 NE13 30.02R BRNX BOT. GARD N/A 77 66 69 E5 30.04F TETERBORO MOSUNNY 79 66 64 NE6 30.03R $$ NYZ177-179-078>081-041400- LONG ISLAND NEW YORK CITY SKY/WX TMP DP RH WIND PRES REMARKS FARMINGDALE SUNNY 79 67 66 E10G18 30.03R ISLIP PTSUNNY 77 68 73 E12 30.02R SHIRLEY PTSUNNY 77 68 73 VRB6 30.05R WESTHAMPTON MOSUNNY 77 68 73 E13 30.06R MONTAUK POINT N/A 74 68 81 NE10G20 30.07R $$ NYZ052-065-067-041400- HUDSON VALLEY CITY SKY/WX TMP DP RH WIND PRES REMARKS WHITE PLAINS PTSUNNY 73 67 81 NE7 30.05R NEWBURGH MOSUNNY 73 63 68 NE8 30.09 MONTGOMERY PTSUNNY 74 62 66 NE9 30.08R POUGHKEEPSIE MOSUNNY 73 60 63 N9 30.08R ALBANY MOSUNNY 70 55 59 N7 30.11R $$ NJZ001-105-106-008-010-013-015-019>022-104-041400- NEW JERSEY CITY SKY/WX TMP DP RH WIND PRES REMARKS NEWARK/LIBERTY MOSUNNY 80 68 66 NE13 30.02R TETERBORO MOSUNNY 79 66 64 NE6 30.03R CALDWELL MOSUNNY 78 66 66 NE9 30.04R MORRISTOWN MOSUNNY 77 72 83 NE8 30.04R SOMERVILLE SUNNY 79 67 66 VRB6 30.01R SUSSEX SUNNY 72 63 73 NE8G18 30.08R ANDOVER N/A 74 66 76 VRB6 30.07R TRENTON SUNNY 78 68 71 NE7 30.01R MILLVILLE SUNNY 78 69 73 NE6 30.00R HAZE ATLANTIC CITY SUNNY 79 70 74 VRB3 30.00R HAZE WRIGHTSTOWN SUNNY 77 71 81 E9 29.99R TOMS RIVER SUNNY 79 72 78 NE9 30.01R BELMAR MOSUNNY 77 66 69 NE8 30.02R $$ PAZ047>061-062-071-041400- EASTERN PENNSYLVANIA CITY SKY/WX TMP DP RH WIND PRES REMARKS PHILADELPHIA MOSUNNY 82 68 62 NE9 30.01R ALLENTOWN SUNNY 76 67 73 NE9 30.04R SCRANTON SUNNY 72 66 81 CALM 30.08R $$ CTZ002-004>006-009-010-012-RIZ004-006-007-MAZ004-011-015-041400- SOUTHERN NEW ENGLAND IN CT CITY SKY/WX TMP DP RH WIND PRES REMARKS BRADLEY INTL CLOUDY 72 58 61 NE12 30.11R HARTFORD CLOUDY 74 68 81 N8 30.08R DANBURY MOSUNNY 73 64 73 NE12 30.08R WTRBRY/OXFORD PTSUNNY 73 63 68 NE12 30.10R BRIDGEPORT PTSUNNY 77 67 71 NE15 30.05R MERIDEN CLOUDY 76 66 71 NE8 30.08R NEW HAVEN PTSUNNY 77 67 71 NE12 30.06R CHESTER NOT AVBL GROTON MOSUNNY 74 66 76 NE17G28 30.06R WILLIMANTIC CLOUDY 70 57 63 NE13G21 30.11R IN RI CITY SKY/WX TMP DP RH WIND PRES REMARKS PROVIDENCE PTSUNNY 70 59 68 NE14 30.11R BLOCK ISLAND CLOUDY 70 68 94 NE12G22 30.07R WESTERLY CLOUDY 72 63 73 N12G20 30.08R IN MA CITY SKY/WX TMP DP RH WIND PRES REMARKS BOSTON CLOUDY 67 56 67 NE14 30.14R WORCESTER MOSUNNY 65 53 65 E10 30.14S WESTFIELD CLOUDY 72 55 55 E7 30.12R PROVINCETOWN N/A 70 63 78 NE16 30.10R NANTUCKET CLOUDY 68 68 100 NE9 30.04R FOG $$ ANZ330-335-338-340-345-350-353-355-041400- COASTAL MARINE OBSERVATIONS STATION/POSITION TIME SKY/WX TEMP WIND PRES VSBY WAVE AIR SEA DIR/SP/G HT/PER (UTC) (F) (DEG/KT/KT) (MB) (MI) (FT/S) NY HARB ENTRANCE 1150 75 77 50/ 14/ 17 1015.5 2/ 3 4S FIRE IS NOT AVBL 20S FIRE ISLAND 1150 76 76 60/ 10/ 12 1015.4 1/ 9 GREAT SOUTH BAY 1200 75 79 60/ 14/ 16 N/A 23SW MTP 1250 73 74 60/ 17/ 21 1016.5 2/ 3 HUDSON CANYON NOT AVBL KINGS POINT 1200 76 74 40/ 4/ 5 1015.8 EXECUTION ROCKS 1200 75 60/ 10/ 14 N/A CENTRAL LI SOUND NOT AVBL EASTERN LI SOUND 1200 74 71 50/ 12/ 16 N/A ROBBINS REEF 1200 76 60/ 16/ 18 1015.1 $$ >>>>>>>>>>>>>>>>>>>>>>>>>>>> KEY <<<<<<<<<<<<<<<<<<<<<<<<<<< > < > SKY/WX - SKY CONDITION/PRESENT WEATHER < > TMP - TEMPERATURE IN FAHRENHEIT < > DP - DEWPOINT IN FAHRENHEIT < > RH - RELATIVE HUMIDITY IN PERCENT < > WIND - DIRECTION AND SPEED IN MPH < > PRES - MEAN SEA LEVEL PRESSURE IN INCHES OF HG < > WCI - WIND CHILL INDEX < > VSB - VISIBILITY IN MILES < > HX - HEAT INDEX < > TC - TEMPERATURE IN CELSIUS < > VRB - VARIABLE WIND DIRECTION < > < >>>>>>>>>>>>>>>>>>>>>>>>>>>> KEY <<<<<<<<<<<<<<<<<<<<<<<<<<<

USA.gov is the U.S. government's official web portal to all federal, state and local government web resources and services.